SCP
0 0 0 0 0 0 0 0 0 0 0 0 0 1 1 1 1 1 1 2 2 2 2 2 2 1 1 1 1 1 1 1 1 1 1 1 1 1 1 1 0 0 0 0
0 0 0 0 0 0 0 0 0 0 0 0 1 1 1 1 1 1 2 2 2 2 2 2 2 1 1 1 1 1 1 1 1 1 1 1 1 1 1 1 0 0 0 0
0 0 0 0 0 0 0 0 0 0 0 0 1 1 2 2 2 2 2 2 3 3 3 2 2 2 2 1 1 1 1 1 1 1 1 1 1 1 1 0 0 0 0 0
0 0 0 0 0 0 0 0 0 0 0 1 1 1 2 2 2 3 3 3 3 3 3 3 2 2 2 2 2 1 1 1 1 1 1 1 1 1 0 0 0 0 0 0
0 0 0 0 0 0 0 0 0 1 1 1 1 1 2 2 3 3 3 3 3 3 3 3 2 2 2 2 2 1 1 1 1 1 1 1 0 0 0 0 0 0 0 0
0 0 0 0 0 0 0 0 1 1 1 1 1 1 1 2 2 3 3 3 3 3 3 3 3 2 2 2 2 1 1 1 1 1 0 0 0 0 0 0 0 0 0 0
0 0 0 0 0 0 0 1 1 1 1 1 1 1 1 1 2 2 2 2 2 2 2 2 2 2 2 2 1 1 1 1 0 0 0 0 0 0 0 0 0 0 0 0
0 0 0 0 0 0 0 1 0 0 0 0 1 1 1 1 1 1 1 1 2 2 2 2 2 2 1 1 1 1 0 0 0 0 0 0 0 0 0 0 0 0 0 0
0 0 0 0 0 0 0 0 0 0 0 0 0 0 0 0 1 1 1 1 1 1 1 1 1 1 1 1 0 0 0 0 0 0 0 0 0 0 0 0 0 0 0 0
0 0 0 0 0 0 0 0 0 0 0 0 0 0 0 0 0 0 1 1 1 1 1 1 1 1 1 0 0 0 0 0 0 0 0 0 0 0 0 0 0 0 0 0
0 0 0 0 0 0 0 0 0 0 0 0 0 0 0 0 0 0 0 0 0 0 0 0 0 0 0 0 0 0 0 0 0 0 0 0 0 0 0 0 0 0 0 0
0 0 0 0 0 0 0 0 0 0 0 0 0 0 0 0 0 0 0 0 0 0 0 0 0 0 0 0 0 0 0 0 0 0 0 0 0 0 0 0 0 0 0 0
0 0 0 0 0 0 0 0 0 0 0 0 0 0 0 0 0 0 0 0 0 0 0 0 0 0 0 0 0 0 0 0 0 0 0 0 0 0 0 0 0 0 0 0
0 0 0 0 0 0 0 0 0 0 0 0 0 0 0 0 0 0 0 0 0 0 0 0 0 0 0 0 0 0 0 0 0 0 0 0 0 0 0 0 0 0 0 0
0 0 0 0 0 0 0 0 0 0 0 0 0 0 0 0 0 0 0 0 0 0 0 0 0 0 0 0 0 0 0 0 0 0 0 0 0 0 0 0 0 0 0 0
0 0 0 0 0 0 0 0 0 0 0 0 0 0 0 0 0 0 0 0 0 0 0 0 0 0 0 0 0 0 0 0 0 0 0 0 0 0 0 0 0 0 0 0
0 0 0 0 0 0 0 0 0 0 0 0 0 0 0 0 0 0 0 0 0 0 0 0 0 0 0 0 0 0 0 0 0 0 0 0 0 0 0 0 0 0 0 0
0 0 0 0 0 0 0 0 0 0 0 0 0 0 0 0 0 0 0 0 0 0 0 0 0 0 0 0 0 0 0 0 0 0 0 0 0 0 0 0 0 0 0 0
0 0 0 0 0 0 0 0 0 0 0 0 0 0 0 0 0 0 0 0 0 0 0 0 0 0 0 0 0 0 0 0 0 0 0 0 0 0 0 0 0 0 0 0
0 0 0 0 0 0 0 0 0 0 0 0 0 0 0 0 0 0 0 0 0 0 0 0 0 0 0 0 0 0 0 0 0 0 0 0 0 0 0 0 0 0 0 0
0 0 0 0 0 0 0 0 0 0 0 0 0 0 0 0 0 0 0 0 0 0 0 0 0 0 0 0 0 0 0 0 0 0 0 0 0 0 0 0 0 0 0 0
0 0 0 0 0 0 0 0 0 0 0 0 0 0 0 0 0 0 0 0 0 0 0 0 0 0 0 0 0 0 0 0 0 0 0 0 0 0 0 0 0 0 0 0
0 0 0 0 0 0 0 0 0 0 0 0 0 0 0 0 0 0 0 0 0 0 0 0 0 0 0 0 0 0 0 0 0 0 0 0 0 0 0 0 0 0 0 0
0 0 0 0 0 0 0 0 0 0 0 0 0 0 0 0 0 0 0 0 0 0 0 0 0 0 0 0 0 0 0 0 0 0 0 0 0 0 0 0 0 0 0 0
0 0 0 0 0 0 0 0 0 0 0 0 0 0 0 0 0 0 0 0 0 0 0 0 -0 -0 0 0 0 0 0 0 0 0 0 0 0 0 0 0 0 0 0 0
0 0 0 0 0 0 0 0 0 0 0 0 0 0 0 0 0 0 0 0 0 0 0 0 0 0 0 0 0 0 0 0 0 0 0 0 0 0 0 0 0 0 0 0
0 0 0 0 0 0 0 0 0 0 0 0 0 0 0 0 0 0 0 0 0 0 0 0 0 0 0 0 0 0 0 0 0 0 0 0 0 0 0 0 0 0 0 0
Wind_Speed
15 13 9 8 8 10 13 13 13 11 10 5 1 2 4 4 6 7 10 9 10 11 10 9 9 9 9 9 8 9 9 9 8 7 7 6 6 5 5 5 4 4 4 4
13 13 13 10 10 12 14 14 15 14 12 6 2 2 2 2 6 8 10 11 10 11 11 10 9 8 8 8 8 8 8 8 8 8 7 7 7 7 6 5 5 6 6 6
13 13 14 14 11 11 11 12 12 12 9 8 6 5 3 1 2 6 8 10 10 10 8 8 8 8 7 7 8 8 7 7 8 8 7 7 8 8 7 7 7 8 8 10
11 12 16 10 9 9 9 9 8 9 9 9 6 6 6 4 2 3 5 8 8 8 9 8 8 8 7 8 8 8 8 7 7 8 8 8 8 9 9 8 8 9 10 11
9 12 14 10 7 7 6 6 8 8 9 9 7 4 5 8 7 7 6 6 6 7 8 8 8 9 9 9 9 9 8 8 9 10 10 10 10 10 9 9 9 9 9 10
10 12 12 5 4 6 5 3 10 10 10 10 9 5 4 9 10 9 8 7 6 7 9 8 9 10 10 10 10 10 10 11 11 11 11 11 11 10 8 8 9 9 10 9
12 12 7 5 5 5 5 4 8 8 8 8 6 5 4 7 8 8 9 9 9 9 9 8 9 11 11 11 11 12 13 13 12 12 11 11 10 8 8 8 8 9 9 9
9 9 4 8 6 6 6 7 8 8 7 5 3 4 5 6 7 8 9 10 10 11 10 9 10 12 14 13 12 13 13 13 12 11 10 10 9 8 7 7 8 7 7 7
3 1 4 6 6 6 7 7 8 8 6 3 2 4 5 6 7 8 9 10 11 13 13 11 11 13 15 13 13 14 14 13 12 11 9 8 8 7 5 4 4 5 5 5
4 1 3 6 7 8 8 8 7 6 4 1 3 6 7 8 9 10 10 10 11 14 14 13 12 13 13 13 12 13 13 11 10 10 10 9 7 7 7 5 5 5 5 6
4 2 4 6 8 8 8 7 6 4 2 2 6 8 9 10 11 11 11 11 12 13 14 14 12 13 12 12 12 12 11 10 10 10 11 11 11 10 10 9 8 8 8 7
1 3 3 4 6 6 5 4 3 6 7 7 7 10 12 12 11 12 12 12 12 13 14 13 13 13 11 10 10 10 8 8 7 8 8 9 10 10 15 12 14 16 13 10
4 5 5 4 4 4 3 5 7 9 10 10 10 12 14 14 12 12 13 13 13 13 13 12 12 11 9 8 8 8 7 6 6 7 7 7 7 8 8 8 10 11 11 10
6 6 5 5 5 6 9 11 12 13 12 12 13 15 15 15 14 13 12 11 12 13 12 11 11 10 8 8 7 7 7 7 6 5 5 6 5 6 7 7 6 4 4 3
6 6 7 7 9 9 10 12 14 15 15 15 15 15 15 15 14 13 11 11 11 12 12 11 11 9 7 8 8 7 7 5 5 5 5 5 4 5 5 6 5 5 4 2
7 9 9 10 11 10 11 13 15 15 15 16 15 14 14 14 13 12 11 10 11 12 11 10 9 8 7 8 8 7 7 8 5 4 5 5 5 5 5 4 4 5 5 4
9 10 11 11 11 11 11 12 14 15 15 15 15 14 14 14 13 12 12 11 11 10 9 9 8 7 7 6 6 6 6 5 5 5 6 5 5 5 5 5 5 5 6 5
9 10 11 13 12 12 12 14 14 15 14 14 14 14 13 13 13 12 12 11 11 10 9 9 8 7 7 6 4 5 5 5 6 6 6 5 5 5 5 4 4 5 4 4
12 12 13 14 13 13 13 13 13 13 14 13 13 13 12 13 12 12 11 11 11 10 9 8 7 7 7 6 4 4 5 7 6 6 5 4 3 4 4 4 5 5 5 4
13 14 15 15 14 13 13 13 13 13 13 13 12 12 12 12 11 11 10 9 7 8 8 7 7 7 6 5 3 4 5 6 6 5 4 3 4 5 5 5 5 4 4 4
13 14 14 14 14 13 12 12 12 12 11 11 11 12 12 11 11 10 9 9 9 8 8 7 5 5 5 3 1 4 5 5 5 4 4 4 4 4 5 4 4 3 4 4
11 12 13 13 13 12 10 10 11 11 11 11 11 11 11 10 10 9 9 7 8 6 5 6 6 7 5 3 3 5 5 5 4 4 4 4 4 4 4 3 3 3 3 3
10 10 11 11 11 10 10 10 10 10 10 10 10 10 9 8 7 8 8 7 7 5 4 7 7 6 6 1 3 5 5 4 4 3 3 3 3 3 2 2 2 2 3 3
9 9 10 11 11 10 10 10 10 9 9 9 9 9 8 7 6 7 8 9 8 7 6 7 6 4 3 0 2 4 4 4 3 3 3 3 2 2 2 1 2 2 2 2
9 10 10 10 9 8 9 10 10 9 8 7 8 7 6 6 7 8 9 10 10 9 7 6 3 0 2 1 2 3 4 3 2 2 2 2 1 1 1 1 1 2 2 3
8 7 6 7 7 6 7 6 6 6 6 6 5 5 6 7 8 8 8 10 10 8 7 6 6 5 4 3 3 3 4 5 4 2 1 1 0 0 1 1 3 3 3 3
7 6 5 5 5 5 5 5 5 6 6 6 6 6 6 7 7 8 9 9 8 8 7 7 7 6 5 4 4 4 3 3 3 2 2 2 1 1 1 2 3 3 4 4
Wind_Direction
265 268 257 243 251 266 274 278 280 287 288 280 200 139 133 159 183 166 153 161 159 153 151 155 154 156 158 158 158 157 156 159 162 166 160 159 153 148 141 137 136 119 107 97
268 265 267 251 242 242 251 263 273 281 287 314 349 52 89 167 184 174 166 171 166 154 154 154 152 152 152 150 147 144 150 156 156 152 149 146 142 137 128 118 105 97 89 81
266 272 279 267 260 261 268 271 278 287 313 336 343 0 25 293 215 176 162 160 155 148 146 147 148 147 146 142 139 140 141 139 138 143 141 137 134 125 118 111 102 94 89 84
261 267 266 274 288 285 284 290 310 321 336 345 15 30 19 22 66 98 126 138 139 143 141 145 145 139 132 131 130 130 127 129 132 132 124 118 114 109 105 100 97 93 89 86
262 261 265 272 296 307 302 303 352 353 351 354 358 352 38 34 55 76 82 98 118 128 131 134 138 135 129 127 125 122 118 114 115 115 111 107 106 104 101 100 98 96 93 90
253 260 268 298 1 8 322 291 34 24 11 358 344 314 31 43 49 60 71 79 92 109 108 113 118 120 119 118 114 109 105 100 99 102 104 106 105 104 102 101 100 97 93 90
249 257 262 350 353 319 284 6 19 14 7 358 358 10 45 53 56 58 72 79 86 94 100 102 110 113 110 106 104 103 101 97 95 95 97 99 98 99 102 102 101 101 101 95
247 252 255 24 11 10 10 355 353 351 354 356 36 69 75 75 74 74 82 90 92 91 92 94 100 105 102 99 100 99 98 97 95 92 95 97 96 96 100 109 115 116 118 116
254 258 60 46 27 14 359 344 339 334 336 356 100 112 103 97 94 89 89 94 96 94 89 85 89 99 100 99 100 98 97 96 96 94 90 94 98 98 100 102 115 123 121 113
269 265 37 35 23 19 8 351 340 333 328 339 136 125 114 110 105 99 93 93 94 95 94 90 88 92 98 101 103 103 103 102 100 95 87 75 71 69 62 48 58 73 73 77
277 338 3 25 22 7 358 354 350 352 15 119 129 124 117 111 106 101 96 92 92 95 96 96 95 95 98 101 102 102 101 101 98 93 90 78 70 59 65 52 53 64 61 61
329 28 2 4 10 358 353 1 46 79 78 83 105 111 108 104 102 101 100 97 96 96 96 95 94 92 89 91 96 102 104 108 109 108 107 105 99 81 57 67 70 75 77 83
55 56 62 48 32 34 62 82 91 97 100 100 98 103 104 101 98 98 97 98 99 98 97 96 96 94 93 93 94 94 94 96 106 112 116 119 120 120 111 80 65 72 80 84
77 83 80 70 66 77 91 95 97 96 96 100 101 102 101 100 99 96 96 97 98 98 97 97 97 95 95 91 87 87 91 89 95 98 103 111 120 126 130 132 126 108 101 119
74 80 98 99 96 98 104 108 107 105 105 104 105 107 108 108 106 104 103 104 102 100 99 97 96 94 94 93 89 84 83 78 78 88 94 94 99 109 111 115 120 130 139 162
104 105 110 111 109 111 114 117 116 117 116 116 114 114 115 116 116 114 112 111 107 103 102 101 99 100 99 98 95 87 79 71 67 81 90 89 81 80 82 88 93 99 98 63
126 127 126 122 120 118 118 120 121 122 123 123 122 123 120 116 112 109 107 103 100 100 100 100 98 97 95 93 96 103 100 90 81 78 75 73 75 75 72 66 69 76 82 70
127 131 134 130 128 124 122 122 124 127 128 127 126 124 122 119 117 115 113 111 107 102 98 97 96 93 87 77 73 97 103 96 86 85 78 67 64 70 74 71 67 72 98 110
127 130 130 129 131 130 128 128 128 130 131 130 127 124 121 120 120 121 121 119 116 110 104 100 100 100 94 79 70 104 104 103 98 95 96 101 92 81 75 69 60 53 48 50
129 132 133 133 133 132 132 133 132 131 130 130 129 127 125 126 128 127 124 116 109 111 117 116 112 104 102 81 53 101 97 100 102 103 101 97 88 81 70 64 58 51 49 41
129 129 130 130 128 128 129 132 132 131 133 134 131 129 127 128 129 126 122 112 106 110 114 114 113 111 96 63 93 102 97 92 92 89 87 82 76 75 70 61 55 50 48 38
128 129 127 126 125 125 125 125 128 131 131 129 128 126 127 126 122 115 110 115 125 128 140 129 107 84 51 343 117 104 101 98 95 92 86 85 82 77 72 62 57 53 48 34
116 119 120 121 120 121 122 123 125 125 125 128 129 131 131 127 128 128 125 125 132 132 119 101 96 76 11 336 103 105 103 100 100 105 103 97 93 86 77 63 60 55 47 18
115 120 121 121 121 121 119 117 115 115 117 120 123 126 129 128 121 114 113 115 112 118 109 106 98 57 344 245 113 111 109 111 113 112 110 105 104 100 81 52 44 36 24 357
110 110 114 118 118 116 115 115 116 122 127 125 130 135 130 119 121 122 124 126 129 127 127 131 130 65 267 193 109 109 104 86 68 57 93 95 77 81 64 33 20 340 338 335
105 108 107 108 111 123 130 133 135 136 134 135 138 135 123 119 123 128 135 143 145 144 145 155 175 203 204 179 152 144 140 149 164 175 130 117 144 324 348 337 319 318 319 312
106 104 107 110 117 125 128 133 136 140 140 141 141 136 134 137 142 147 150 153 160 169 171 179 186 193 194 185 172 168 171 171 171 171 173 191 237 269 287 290 300 304 302 301